world map with KOP marked

KOP - Airport

This information may not be accurate or current and is not valid for navigation or flight planning. No warranty of fitness for any purpose is made or implied.

flag of Thailand

Donate via PayPal

Additional information is available on the NEW Great Circle Mapper

Location
City:  Nakhon Phanom, Nakhon Phanom, Thailand
Name:Nakhon Phanom West
ICAO / IATA:VTUW / KOP

Details
Type:Airport (Aerodrome, Airfield)
Latitude:17°23'02"N (17.383794)
Longitude:104°38'35"E (104.643022)
Datum:WGS 1984
Elevation:587 ft (179 m)
Runways:1
Longest:8203 × 148 ft (2500 × 45 m)

Time
Timezone:UTC+7 (DST+9)
Local Time:

Weather
METAR:VTUW  041300Z 19003KT 8000 NSC 28/16 Q1013 NOSIG
TAF:VTUW  041100Z 0412/0512 08007KT 8000 NSC BECMG 0422/0424 4000 BR BECMG 0501/0503 8000 NSW

Related Locations
Nearby:
Farthest:SPOY: 12301 mi / 19797 km
Atico [Atico Airport], ARE, PE

Find:

   beyond  
but within

Other Information
Maps:
Sources:

  


 


Great Circle Mapper   Great Circle Mapper
Great Circle Mapper FAQ   Great Circle Mapper FAQ
  Karl's Home Page
KLSē   KLSē Home
   GC on Facebook
Airlines of the World   Airlines of the World
Donate via PayPal


Copyright © 2004-2019, Karl L. Swartz. All rights reserved.
All trademarks mentioned herein belong to their respective owners.

Please see credits for attribution and copyright information.

Karl Swartz <karl@kls2.com>
  Powered by FreeBSD
Valid HTML 4.01!
Labeled with ICRA
hCard Microformat
Geo Microformat